THORAD AGENA D DEB, 4636

Orbit data source: Space-Track

THORAD AGENA D DEB, 4636 is space debris in SSO originally from a launch on Wed, 08 Apr 1970 UTC launched from the Air Force Western Test Range (AFWTR). Debris objects in space refer to the collection of defunct objects orbiting the Earth. Examples of debris include non-operational satellites, rocket bodies, and fragments generated from explosions, collisions, or faulty payload assembly.

Loading next visibility...
Identifier
4636, 1970-025U
Orbit
SSO
Country
Flag of USUS
Related business
Manufacturer
Unknown
Mission
Spacecraft
Bus & Motor
Unknown
Mass
Unknown
Launch date (UTC)
1970-04-08 (56 years ago)
Launch vehicle
Unknown
Launch site
Air Force Western Test Range (AFWTR)
Object type
Payload
Rocket body
Debris
Shape & HBR
Unknown shape, 0.2 m
Radar Cross Section
Medium (>0.1 m² and <1 m²)

Expand to show TLE details & history
Last TLE update: 12 hours ago

TLE from 12 hours ago
0 THORAD AGENA D DEB
1 04636U 70025U   26257.00014748  .00000252  00000-0  33834-3 0  9992
2 04636 100.0736 259.3728 0032007 259.8277 117.5579 13.70541283807314
Epoch: 2026-09-14T00:00Z
TLE epoch observation values (Epoch: 2026-09-14T00:00:12.742Z)
Latitude
17.41865°
Longitude
-96.84558°
Altitude
1,010.823 km
Speed
7.342 km/s
True Right ascension
17h 04m 46s
True Declination
17° 19' 27"
Sunlit
Object was in daylight at epoch
Visualization orbit readout
Latitude
Unknown
Longitude
Unknown
Altitude
Unknown
Speed
Unknown
Apparent Right ascension
Unknown
Apparent Declination
Unknown
Sunlit
N/A
Visualization observer readout
Local Sidereal Time
04:29:38
Azimuth
Unknown
Elevation
Unknown
Doppler factor
Unknown
Orbital elements
Apogee altitude
1,018.521 km
Perigee altitude
971.323 km
Semi-major axis
7,373.059 km
Eccentricity
0.0032
Inclination
100.0736°
RAAN
259.3728°
Arg. of periapsis
259.8277°
True anomaly
117.88246°
Mean anomaly
117.5579°
Eccentric anomaly
117.72024°
Mean motion
3.42824 °/min
Orbital period
105.01 mins
BSTAR
0.00033834
Loading maneuver chart data...
Computing Atmospheric mass density...
Loading historical data...
Loading historical data...
Loading historical data...
Loading historical data...
Loading historical data...
Loading historical data...
Loading historical data...

Documentation

Showing up to 5 results
|